CW7595 Weather Reports


time (UTC)temp
F
wind
direction
speed
knots
gust
knots
rain 1hr
in
rain 24hr
in
rain mn
in
humidity
%
barometer
mb
20260508084546 39 248 0.0 0.0 0.00 0.18 0.00 82 1001.3
20260508083045 39 248 0.0 0.0 0.00 0.18 0.00 82 1001.3
20260508081545 39 248 0.0 0.0 0.00 0.18 0.00 82 1001.3
20260508080044 39 266 0.0 0.0 0.00 0.19 0.00 82 1001.2
20260508074545 39 266 0.0 0.0 0.00 0.19 0.00 82 1001.1
20260508073046 38 266 0.0 0.0 0.00 0.19 0.00 81 1001.1
20260508071552 38 274 0.0 0.0 0.00 0.19 0.00 81 1001.0
20260508070141 38 269 0.0 0.0 0.00 0.28 0.00 81 1001.1
20260508064540 38 256 0.0 0.0 0.00 0.28 0.00 81 1001.1
20260508063038 38 250 0.0 0.0 0.00 0.28 0.00 80 1001.2
20260508061538 38 247 0.0 0.0 0.00 0.28 0.00 80 1001.2
20260508060036 38 213 0.0 0.0 0.00 0.44 0.00 79 1001.3
20260508054534 38 202 0.0 0.0 0.00 0.44 0.00 79 1001.4
20260508053056 38 202 0.0 0.0 0.00 0.44 0.00 78 1001.5
20260508051530 39 213 0.0 0.0 0.00 0.44 0.00 78 1001.6
20260508050029 39 224 0.0 0.0 0.00 0.56 0.00 77 1001.7
20260508044529 40 177 0.0 0.0 0.00 0.56 0.00 76 1001.7
20260508043026 39 193 0.0 0.0 0.00 0.56 0.00 77 1001.6
20260508041542 40 188 0.0 0.0 0.00 0.56 0.00 77 1001.7
20260508040027 40 272 0.0 0.0 0.00 0.68 0.56 77 1001.6
20260508034529 40 229 0.0 0.0 0.00 0.68 0.56 77 1001.6
20260508033023 40 229 0.0 0.0 0.00 0.68 0.56 76 1001.7
20260508031519 41 227 0.0 0.0 0.00 0.68 0.56 75 1001.8
20260508030024 41 227 0.0 0.0 0.00 0.72 0.56 76 1001.8
20260508024519 41 227 0.0 0.0 0.00 0.72 0.56 76 1001.9
20260508023014 42 272 0.0 0.0 0.00 0.72 0.56 75 1002.0
20260508021615 42 238 0.0 0.0 0.00 0.72 0.56 76 1002.0
20260508020020 42 245 0.0 0.0 0.00 0.76 0.56 77 1002.1
20260508014512 42 245 0.0 0.0 0.00 0.76 0.56 76 1002.1
20260508013009 43 245 0.0 0.0 0.00 0.76 0.56 74 1002.1
20260508011513 43 243 0.0 0.0 0.00 0.76 0.56 74 1002.0
20260508010009 44 244 0.0 0.0 0.00 0.83 0.56 73 1001.9
20260508004510 44 246 0.0 0.0 0.00 0.83 0.56 72 1001.9
20260508003007 45 246 0.0 3.5 0.00 0.83 0.56 71 1001.7
20260508001507 46 268 1.7 7.0 0.00 0.83 0.56 70 1001.5
20260508000006 47 276 0.9 7.8 0.00 0.94 0.56 71 1001.4
20260507234507 47 249 0.0 4.3 0.00 0.94 0.56 73 1001.3
20260507233012 47 275 0.0 5.2 0.00 0.94 0.56 73 1001.2
20260507231504 47 282 0.0 6.1 0.00 0.94 0.56 74 1001.1
20260507230005 48 239 0.0 5.2 0.00 1.01 0.56 79 1000.9
20260507224505 48 229 0.0 7.8 0.00 1.01 0.56 81 1000.9
20260507223004 48 221 0.0 5.2 0.02 1.01 0.56 81 1000.9
20260507221503 47 186 0.0 7.0 0.08 1.01 0.56 80 1000.7
20260507220002 47 172 2.6 8.7 0.12 1.11 0.56 80 1000.6
20260507214502 47 178 2.6 7.8 0.12 1.11 0.56 79 1000.4
20260507213003 48 173 1.7 7.8 0.11 1.09 0.54 78 1000.4
20260507211601 50 26 0.0 0.0 0.05 1.03 0.48 74 999.8
20260507210105 52 346 0.0 0.0 0.01 1.09 0.44 68 1000.0
20260507204600 52 178 0.0 3.5 0.01 1.09 0.44 68 999.6
20260507203102 52 178 0.0 5.2 0.00 1.08 0.43 68 999.5
20260507200058 54 207 0.0 2.6 0.00 1.21 0.43 66 999.5
20260507194619 51 189 0.0 5.2 0.00 1.21 0.43 72 999.7
20260507193057 49 185 0.9 6.1 0.00 1.21 0.43 74 1000.0
20260507191556 51 190 2.6 8.7 0.00 1.21 0.43 67 1000.0
20260507190057 53 186 0.9 5.2 0.00 1.26 0.43 56 999.7
20260507184554 53 181 0.0 2.6 0.00 1.26 0.43 56 999.6
20260507183055 54 211 0.0 4.3 0.00 1.26 0.43 51 999.9
20260507181557 56 246 0.9 7.0 0.00 1.26 0.43 51 999.9
20260507180051 57 244 0.0 7.8 0.00 1.32 0.43 51 1000.0
20260507174557 56 186 0.0 6.1 0.00 1.32 0.43 56 1000.0
20260507173119 55 190 0.9 7.0 0.00 1.32 0.43 55 1000.1
20260507171554 56 312 0.9 6.1 0.00 1.32 0.43 52 1000.0
20260507170105 58 240 0.0 0.0 0.00 1.33 0.43 52 1000.1
20260507164553 56 253 0.0 0.0 0.00 1.33 0.43 50 1000.3
20260507163042 56 292 0.0 0.0 0.00 1.33 0.43 57 1000.5
20260507161557 55 239 0.0 0.0 0.00 1.33 0.43 60 1000.6
20260507160041 54 236 0.0 0.0 0.00 1.37 0.43 68 1001.0
20260507154541 53 193 0.0 0.0 0.00 1.37 0.43 72 1001.0
20260507153038 53 258 0.0 0.0 0.00 1.37 0.43 70 1001.2
20260507151533 52 250 0.0 0.0 0.00 1.37 0.43 71 1001.3
20260507150028 51 290 0.0 0.0 0.00 1.37 0.43 75 1001.4
20260507144531 50 267 0.0 0.0 0.00 1.37 0.43 76 1001.5
20260507143025 49 347 0.0 0.0 0.00 1.37 0.43 77 1001.6
20260507131506 46 287 0.0 0.0 0.00 1.37 0.43 83 1001.7
20260507130004 46 277 0.0 0.0 0.00 1.37 0.43 84 1002.1
20260507124508 45 281 0.0 0.9 0.00 1.37 0.43 85 1001.9
20260507123004 45 255 0.0 5.2 0.00 1.37 0.43 86 1001.9
20260507121501 44 255 0.0 0.0 0.00 1.37 0.43 86 1001.9
20260507120105 44 275 0.0 0.0 0.00 1.38 0.43 87 1001.9
20260507114615 44 285 0.0 0.0 0.00 1.38 0.43 87 1001.8
20260507113059 44 223 0.0 0.0 0.00 1.38 0.43 87 1001.9
20260507111558 44 252 0.9 6.1 0.00 1.38 0.43 87 1001.8
20260507110104 43 290 2.6 8.7 0.00 1.43 0.43 87 1001.3
20260507104556 43 282 3.5 7.8 0.01 1.43 0.43 87 1001.8
20260507103055 42 296 4.3 7.8 0.02 1.43 0.43 87 1002.0
20260507101601 42 302 3.5 7.8 0.02 1.43 0.43 87 1001.7
20260507100053 42 360 1.7 7.0 0.03 1.49 0.43 87 1001.5
20260507094556 42 271 1.7 5.2 0.03 1.48 0.42 87 1001.2
20260507093051 42 281 1.7 7.8 0.02 1.47 0.41 87 1001.1
20260507091551 42 282 3.5 7.0 0.03 1.47 0.41 87 1001.2